Time,TemperatureF,DewpointF,PressureIn,WindDirection,WindDirectionDegrees,WindSpeedMPH,WindSpeedGustMPH,Humidity,HourlyPrecipIn,Conditions,Clouds,dailyrainin,SoftwareType,DateUTC
2013-08-06 00:01:00,65.4,61.8,29.92,SSE,163,1.0,2.0,88,0.00,,OVC200,0.01,VWS V14.01,2013-08-06 04:01:00,
2013-08-06 00:02:00,65.4,61.8,29.92,SSE,163,1.0,2.0,88,0.00,,OVC200,0.00,VWS V14.01,2013-08-06 04:02:00,
2013-08-06 00:07:00,65.4,61.8,29.91,SSE,163,3.0,3.0,88,0.00,,OVC200,0.00,VWS V14.01,2013-08-06 04:07:00,
2013-08-06 00:12:00,65.4,61.4,29.92,SSE,163,0.0,3.0,87,0.00,,OVC200,0.00,VWS V14.01,2013-08-06 04:12:00,
2013-08-06 00:17:00,65.4,61.4,29.92,SSE,163,0.0,3.0,87,0.00,,OVC200,0.00,VWS V14.01,2013-08-06 04:17:00,
2013-08-06 00:22:00,65.2,61.2,29.92,SSE,163,0.0,3.0,87,0.00,,OVC200,0.00,VWS V14.01,2013-08-06 04:22:00,
2013-08-06 00:27:00,65.2,61.2,29.92,SSE,163,0.0,3.0,87,0.00,,OVC200,0.00,VWS V14.01,2013-08-06 04:27:00,
2013-08-06 00:32:00,64.9,61.3,29.92,SSE,163,0.0,0.0,88,0.00,,OVC200,0.00,VWS V14.01,2013-08-06 04:32:00,
2013-08-06 00:37:00,64.6,61.0,29.92,SSE,163,0.0,0.0,88,0.00,,OVC200,0.00,VWS V14.01,2013-08-06 04:37:00,
2013-08-06 00:42:00,64.2,60.9,29.92,SSE,163,0.0,0.0,89,0.00,,OVC200,0.00,VWS V14.01,2013-08-06 04:42:00,
2013-08-06 00:47:00,63.7,60.4,29.93,SSE,163,0.0,0.0,89,0.00,,OVC190,0.00,VWS V14.01,2013-08-06 04:47:00,
2013-08-06 00:53:00,63.3,60.3,29.93,SSE,163,0.0,0.0,90,0.00,,OVC190,0.00,VWS V14.01,2013-08-06 04:53:00,
2013-08-06 00:58:00,63.1,60.4,29.93,SSE,163,0.0,0.0,91,0.00,,OVC190,0.00,VWS V14.01,2013-08-06 04:58:00,
2013-08-06 01:03:00,62.8,60.1,29.93,SSE,163,0.0,0.0,91,0.00,,OVC190,0.00,VWS V14.01,2013-08-06 05:03:00,
2013-08-06 01:08:00,62.6,59.9,29.93,SSE,163,0.0,0.0,91,0.00,,OVC190,0.00,VWS V14.01,2013-08-06 05:08:00,
2013-08-06 01:13:00,62.4,60.0,29.93,SSE,163,0.0,0.0,92,0.00,,OVC190,0.00,VWS V14.01,2013-08-06 05:13:00,
2013-08-06 01:18:00,62.2,59.8,29.92,SSE,163,0.0,0.0,92,0.00,,OVC190,0.00,VWS V14.01,2013-08-06 05:18:00,
2013-08-06 01:23:00,62.0,60.0,29.92,SSE,163,0.0,0.0,93,0.00,,OVC190,0.00,VWS V14.01,2013-08-06 05:23:00,
2013-08-06 01:28:00,61.8,59.8,29.92,SSE,163,0.0,0.0,93,0.00,,OVC190,0.00,VWS V14.01,2013-08-06 05:28:00,
2013-08-06 01:33:00,61.7,59.4,29.93,SSE,163,0.0,0.0,92,0.00,,OVC190,0.00,VWS V14.01,2013-08-06 05:33:00,
2013-08-06 01:38:00,61.6,59.3,29.92,SSE,163,0.0,0.0,92,0.00,,OVC190,0.00,VWS V14.01,2013-08-06 05:38:00,
2013-08-06 01:43:00,61.4,59.1,29.93,SSE,163,0.0,0.0,92,0.00,,OVC190,0.00,VWS V14.01,2013-08-06 05:43:00,
2013-08-06 01:49:00,61.4,59.4,29.92,SSE,163,0.0,0.0,93,0.00,,FEW180,0.00,VWS V14.01,2013-08-06 05:49:00,
2013-08-06 01:54:00,61.4,59.4,29.92,SSE,163,0.0,0.0,93,0.00,,FEW180,0.00,VWS V14.01,2013-08-06 05:54:00,
2013-08-06 01:59:00,61.3,59.0,29.92,SSE,163,0.0,0.0,92,0.00,,FEW180,0.00,VWS V14.01,2013-08-06 05:59:00,
2013-08-06 02:04:00,61.3,59.0,29.92,SSE,163,0.0,0.0,92,0.00,,FEW180,0.00,VWS V14.01,2013-08-06 06:04:00,
2013-08-06 02:09:00,61.2,58.9,29.92,SSE,163,0.0,0.0,92,0.00,,FEW180,0.00,VWS V14.01,2013-08-06 06:09:00,
2013-08-06 02:14:00,61.1,58.8,29.92,SSE,163,0.0,0.0,92,0.00,,FEW180,0.00,VWS V14.01,2013-08-06 06:14:00,
2013-08-06 02:19:00,61.0,58.7,29.91,SSE,163,0.0,0.0,92,0.00,,FEW180,0.00,VWS V14.01,2013-08-06 06:19:00,
2013-08-06 02:24:00,60.9,58.9,29.91,SSE,163,0.0,0.0,93,0.00,,FEW180,0.00,VWS V14.01,2013-08-06 06:24:00,
2013-08-06 02:29:00,60.9,58.9,29.91,SSE,163,0.0,0.0,93,0.00,,FEW180,0.00,VWS V14.01,2013-08-06 06:29:00,
2013-08-06 02:34:00,60.9,58.6,29.91,SSE,163,0.0,0.0,92,0.00,,FEW180,0.00,VWS V14.01,2013-08-06 06:34:00,
2013-08-06 02:39:00,60.8,58.8,29.91,SSE,163,0.0,0.0,93,0.00,,FEW180,0.00,VWS V14.01,2013-08-06 06:39:00,
2013-08-06 02:45:00,60.7,58.7,29.91,SSE,163,0.0,0.0,93,0.00,,FEW180,0.00,VWS V14.01,2013-08-06 06:45:00,
2013-08-06 02:50:00,60.7,58.7,29.91,SSE,163,0.0,0.0,93,0.00,,SCT075,0.00,VWS V14.01,2013-08-06 06:50:00,
2013-08-06 02:55:00,60.6,58.6,29.91,SSE,163,0.0,0.0,93,0.00,,SCT075,0.00,VWS V14.01,2013-08-06 06:55:00,
2013-08-06 03:00:00,60.6,58.6,29.91,SSE,163,0.0,0.0,93,0.00,,SCT075,0.00,VWS V14.01,2013-08-06 07:00:00,
2013-08-06 03:05:00,60.5,58.5,29.91,SSE,163,0.0,0.0,93,0.00,,SCT075,0.00,VWS V14.01,2013-08-06 07:05:00,
2013-08-06 03:10:00,60.4,58.4,29.91,SSE,163,0.0,0.0,93,0.00,,SCT075,0.00,VWS V14.01,2013-08-06 07:10:00,
2013-08-06 03:15:00,60.3,58.3,29.91,SSE,163,0.0,0.0,93,0.00,,SCT075,0.00,VWS V14.01,2013-08-06 07:15:00,
2013-08-06 03:20:00,60.2,58.5,29.91,SSE,163,0.0,0.0,94,0.00,,SCT075,0.00,VWS V14.01,2013-08-06 07:20:00,
2013-08-06 03:25:00,60.2,58.5,29.91,SSE,163,0.0,0.0,94,0.00,,SCT075,0.00,VWS V14.01,2013-08-06 07:25:00,
2013-08-06 03:30:00,60.2,58.5,29.91,SSE,163,0.0,0.0,94,0.00,,SCT075,0.00,VWS V14.01,2013-08-06 07:30:00,
2013-08-06 03:35:00,60.2,58.5,29.91,SSE,163,0.0,0.0,94,0.00,,SCT075,0.00,VWS V14.01,2013-08-06 07:35:00,
2013-08-06 03:40:00,60.1,58.4,29.91,SSE,163,0.0,0.0,94,0.00,,SCT075,0.00,VWS V14.01,2013-08-06 07:40:00,
2013-08-06 03:46:00,60.0,58.3,29.91,SSE,163,0.0,0.0,94,0.00,,CLR,0.00,VWS V14.01,2013-08-06 07:46:00,
2013-08-06 03:51:00,59.9,58.2,29.91,SSE,163,0.0,0.0,94,0.00,,CLR,0.00,VWS V14.01,2013-08-06 07:51:00,
2013-08-06 03:56:00,60.0,58.3,29.91,SSE,163,0.0,2.0,94,0.00,,CLR,0.00,VWS V14.01,2013-08-06 07:56:00,
2013-08-06 04:01:00,60.2,58.5,29.91,SSE,163,0.0,0.0,94,0.00,,CLR,0.00,VWS V14.01,2013-08-06 08:01:00,
2013-08-06 04:06:00,60.5,58.8,29.91,SSE,163,1.0,1.0,94,0.00,,CLR,0.00,VWS V14.01,2013-08-06 08:06:00,
2013-08-06 04:11:00,61.1,59.1,29.91,SSE,163,0.0,3.0,93,0.00,,CLR,0.00,VWS V14.01,2013-08-06 08:11:00,
2013-08-06 04:16:00,61.4,59.1,29.91,SSE,163,0.0,3.0,92,0.00,,CLR,0.00,VWS V14.01,2013-08-06 08:16:00,
2013-08-06 04:21:00,61.7,59.0,29.91,SSE,163,0.0,3.0,91,0.00,,CLR,0.00,VWS V14.01,2013-08-06 08:21:00,
2013-08-06 04:26:00,61.8,58.8,29.91,SSE,163,0.0,3.0,90,0.00,,CLR,0.00,VWS V14.01,2013-08-06 08:26:00,
2013-08-06 04:31:00,61.8,58.8,29.91,SSE,163,0.0,1.0,90,0.00,,CLR,0.00,VWS V14.01,2013-08-06 08:31:00,
2013-08-06 04:36:00,61.7,58.7,29.90,SSE,163,0.0,1.0,90,0.00,,CLR,0.00,VWS V14.01,2013-08-06 08:36:00,
2013-08-06 04:42:00,61.5,58.8,29.90,SSE,163,0.0,1.0,91,0.00,,CLR,0.00,VWS V14.01,2013-08-06 08:42:00,
2013-08-06 04:47:00,61.2,58.6,29.90,SSE,163,0.0,1.0,91,0.00,,SCT220,0.00,VWS V14.01,2013-08-06 08:47:00,
2013-08-06 04:52:00,61.0,58.4,29.90,SSE,163,0.0,1.0,91,0.00,,SCT220,0.00,VWS V14.01,2013-08-06 08:52:00,
2013-08-06 04:57:00,60.8,58.5,29.90,SSE,163,0.0,1.0,92,0.00,,SCT220,0.00,VWS V14.01,2013-08-06 08:57:00,
2013-08-06 05:02:00,60.6,58.3,29.90,SSE,163,0.0,0.0,92,0.00,,SCT220,0.00,VWS V14.01,2013-08-06 09:02:00,
2013-08-06 05:07:00,60.4,58.1,29.89,SSE,163,0.0,0.0,92,0.00,,SCT220,0.00,VWS V14.01,2013-08-06 09:07:00,
2013-08-06 05:12:00,60.1,57.8,29.90,SSE,163,0.0,0.0,92,0.00,,SCT220,0.00,VWS V14.01,2013-08-06 09:12:00,
2013-08-06 05:17:00,59.9,57.9,29.89,SSE,163,0.0,0.0,93,0.00,,SCT220,0.00,VWS V14.01,2013-08-06 09:17:00,
2013-08-06 05:22:00,59.6,57.6,29.89,SSE,163,0.0,1.0,93,0.00,,SCT220,0.00,VWS V14.01,2013-08-06 09:22:00,
2013-08-06 05:27:00,59.5,57.5,29.89,SSE,163,0.0,1.0,93,0.00,,SCT220,0.00,VWS V14.01,2013-08-06 09:27:00,
2013-08-06 05:32:00,59.7,58.0,29.89,SSE,163,0.0,0.0,94,0.00,,SCT220,0.00,VWS V14.01,2013-08-06 09:32:00,
2013-08-06 05:38:00,60.0,58.0,29.89,SSE,163,0.0,0.0,93,0.00,,SCT220,0.00,VWS V14.01,2013-08-06 09:38:00,
2013-08-06 05:43:00,60.3,58.3,29.89,SSE,163,0.0,0.0,93,0.00,,SCT220,0.00,VWS V14.01,2013-08-06 09:43:00,
2013-08-06 05:48:00,60.4,58.1,29.89,SSE,163,0.0,0.0,92,0.00,,SCT095,0.00,VWS V14.01,2013-08-06 09:48:00,
2013-08-06 05:53:00,60.4,58.1,29.89,SSE,163,0.0,0.0,92,0.00,,SCT095,0.00,VWS V14.01,2013-08-06 09:53:00,
2013-08-06 05:58:00,60.4,58.1,29.89,SSE,163,0.0,0.0,92,0.00,,SCT095,0.00,VWS V14.01,2013-08-06 09:58:00,
2013-08-06 06:03:00,60.2,57.9,29.89,SSE,163,0.0,0.0,92,0.00,,SCT095,0.00,VWS V14.01,2013-08-06 10:03:00,
2013-08-06 06:08:00,60.2,57.9,29.89,SSE,163,0.0,0.0,92,0.00,,SCT095,0.00,VWS V14.01,2013-08-06 10:08:00,
2013-08-06 06:13:00,60.2,57.9,29.89,SSE,163,0.0,0.0,92,0.00,,SCT095,0.00,VWS V14.01,2013-08-06 10:13:00,
2013-08-06 06:18:00,60.2,57.9,29.90,SSE,163,0.0,0.0,92,0.00,,SCT095,0.00,VWS V14.01,2013-08-06 10:18:00,
2013-08-06 06:23:00,60.2,57.9,29.90,SSE,163,0.0,0.0,92,0.00,,SCT095,0.00,VWS V14.01,2013-08-06 10:23:00,
2013-08-06 06:28:00,60.2,57.9,29.90,SSE,163,0.0,0.0,92,0.00,,SCT095,0.00,VWS V14.01,2013-08-06 10:28:00,
2013-08-06 06:34:00,60.1,58.1,29.91,SSE,163,0.0,0.0,93,0.00,,SCT095,0.00,VWS V14.01,2013-08-06 10:34:00,
2013-08-06 06:39:00,60.3,58.3,29.91,SSE,163,0.0,0.0,93,0.00,,SCT095,0.00,VWS V14.01,2013-08-06 10:39:00,
2013-08-06 06:44:00,60.5,58.5,29.91,SSE,163,0.0,0.0,93,0.01,,SCT095,0.01,VWS V14.01,2013-08-06 10:44:00,
2013-08-06 06:49:00,60.9,58.9,29.91,SSE,163,0.0,0.0,93,0.01,,SCT100,0.01,VWS V14.01,2013-08-06 10:49:00,
2013-08-06 06:54:00,61.5,58.8,29.91,SSE,163,0.0,0.0,91,0.01,,SCT100,0.01,VWS V14.01,2013-08-06 10:54:00,
2013-08-06 06:59:00,61.8,59.2,29.91,SSE,163,0.0,0.0,91,0.01,,SCT100,0.01,VWS V14.01,2013-08-06 10:59:00,
2013-08-06 07:04:00,62.1,59.5,29.92,SSE,163,0.0,0.0,91,0.01,,SCT100,0.01,VWS V14.01,2013-08-06 11:04:00,
2013-08-06 07:09:00,62.2,59.2,29.92,SSE,163,0.0,0.0,90,0.01,,SCT100,0.01,VWS V14.01,2013-08-06 11:09:00,
2013-08-06 07:14:00,62.4,59.1,29.92,SSE,163,0.0,0.0,89,0.01,,SCT100,0.01,VWS V14.01,2013-08-06 11:14:00,
2013-08-06 07:19:00,62.6,59.3,29.92,SSE,163,0.0,0.0,89,0.01,,SCT100,0.01,VWS V14.01,2013-08-06 11:19:00,
2013-08-06 07:24:00,62.8,59.2,29.92,SSE,163,0.0,0.0,88,0.01,,SCT100,0.01,VWS V14.01,2013-08-06 11:24:00,
2013-08-06 07:30:00,63.0,59.4,29.92,SSE,163,0.0,0.0,88,0.01,,SCT100,0.01,VWS V14.01,2013-08-06 11:30:00,
2013-08-06 07:35:00,63.1,59.5,29.92,SSE,163,2.0,3.0,88,0.01,,SCT100,0.01,VWS V14.01,2013-08-06 11:35:00,
2013-08-06 07:40:00,63.2,59.3,29.92,SSE,163,1.0,3.0,87,0.01,,SCT100,0.01,VWS V14.01,2013-08-06 11:40:00,
2013-08-06 07:45:00,63.3,59.4,29.92,SSE,163,1.0,3.0,87,0.01,,SCT100,0.01,VWS V14.01,2013-08-06 11:45:00,
2013-08-06 07:50:00,63.4,59.2,29.92,SSE,151,0.0,3.0,86,0.01,,CLR,0.01,VWS V14.01,2013-08-06 11:50:00,
2013-08-06 07:55:00,63.5,59.2,29.92,SSE,156,2.0,5.0,86,0.01,,CLR,0.01,VWS V14.01,2013-08-06 11:55:00,
2013-08-06 08:00:00,63.7,59.1,29.92,SSE,161,2.0,5.0,85,0.01,,CLR,0.01,VWS V14.01,2013-08-06 12:00:00,
2013-08-06 08:05:00,63.8,59.2,29.92,SSE,160,2.0,4.0,85,0.00,,CLR,0.01,VWS V14.01,2013-08-06 12:05:00,
2013-08-06 08:10:00,64.0,59.1,29.92,SE,143,5.0,5.0,84,0.00,,CLR,0.01,VWS V14.01,2013-08-06 12:10:00,
2013-08-06 08:15:00,64.3,59.7,29.92,SSE,153,3.0,5.0,85,0.00,,CLR,0.01,VWS V14.01,2013-08-06 12:15:00,
2013-08-06 08:20:00,64.5,59.6,29.92,SSE,154,2.0,5.0,84,0.00,,CLR,0.01,VWS V14.01,2013-08-06 12:20:00,
2013-08-06 08:26:00,64.5,59.6,29.92,SSE,153,0.0,5.0,84,0.00,,CLR,0.01,VWS V14.01,2013-08-06 12:26:00,
2013-08-06 08:31:00,64.7,59.8,29.92,SSE,155,0.0,5.0,84,0.00,,CLR,0.01,VWS V14.01,2013-08-06 12:31:00,
2013-08-06 08:36:00,64.8,59.9,29.92,SSE,155,1.0,4.0,84,0.00,,CLR,0.01,VWS V14.01,2013-08-06 12:36:00,
2013-08-06 08:41:00,64.9,60.0,29.92,SSE,153,1.0,4.0,84,0.00,,CLR,0.01,VWS V14.01,2013-08-06 12:41:00,
2013-08-06 08:46:00,65.0,59.7,29.92,SSE,152,3.0,4.0,83,0.00,,BKN080,0.01,VWS V14.01,2013-08-06 12:46:00,
2013-08-06 08:51:00,65.2,59.9,29.92,SSE,149,3.0,4.0,83,0.00,,BKN080,0.01,VWS V14.01,2013-08-06 12:51:00,
2013-08-06 08:56:00,65.5,60.2,29.92,SSE,163,4.0,5.0,83,0.00,,BKN080,0.01,VWS V14.01,2013-08-06 12:56:00,
2013-08-06 09:01:00,65.7,60.4,29.92,SSE,161,0.0,2.0,83,0.00,,BKN080,0.01,VWS V14.01,2013-08-06 13:01:00,
2013-08-06 09:06:00,66.5,60.8,29.92,South,171,4.0,4.0,82,0.00,,BKN080,0.01,VWS V14.01,2013-08-06 13:06:00,
2013-08-06 09:11:00,67.2,60.8,29.92,South,169,3.0,5.0,80,0.00,,BKN080,0.01,VWS V14.01,2013-08-06 13:11:00,
2013-08-06 09:16:00,67.6,60.5,29.92,SSE,166,3.0,7.0,78,0.00,,BKN080,0.01,VWS V14.01,2013-08-06 13:16:00,
2013-08-06 09:21:00,68.1,61.3,29.92,East,101,3.0,7.0,79,0.00,,BKN080,0.01,VWS V14.01,2013-08-06 13:21:00,
2013-08-06 09:27:00,68.6,60.7,29.92,South,169,0.0,7.0,76,0.00,,BKN080,0.01,VWS V14.01,2013-08-06 13:27:00,
2013-08-06 09:32:00,68.8,60.9,29.92,SSE,167,2.0,4.0,76,0.00,,BKN080,0.01,VWS V14.01,2013-08-06 13:32:00,
2013-08-06 09:37:00,69.1,60.8,29.92,SSE,152,3.0,5.0,75,0.00,,BKN080,0.01,VWS V14.01,2013-08-06 13:37:00,
2013-08-06 09:42:00,69.4,61.1,29.92,SSE,159,2.0,5.0,75,0.00,,BKN080,0.01,VWS V14.01,2013-08-06 13:42:00,
2013-08-06 09:47:00,69.9,62.0,29.92,SSE,166,3.0,5.0,76,0.00,,BKN100,0.01,VWS V14.01,2013-08-06 13:47:00,
2013-08-06 09:52:00,70.0,61.7,29.92,SSW,192,2.0,6.0,75,0.00,,BKN100,0.01,VWS V14.01,2013-08-06 13:52:00,
2013-08-06 09:57:00,70.5,62.6,29.92,SSE,168,2.0,6.0,76,0.00,,BKN100,0.01,VWS V14.01,2013-08-06 13:57:00,
2013-08-06 10:02:00,70.9,61.4,29.92,SSE,167,4.0,7.0,72,0.00,,BKN100,0.01,VWS V14.01,2013-08-06 14:02:00,
2013-08-06 10:07:00,71.0,62.3,29.92,SSE,168,3.0,7.0,74,0.00,,BKN100,0.01,VWS V14.01,2013-08-06 14:07:00,
2013-08-06 10:13:00,71.3,62.6,29.91,SSE,167,5.0,7.0,74,0.00,,BKN100,0.01,VWS V14.01,2013-08-06 14:13:00,
2013-08-06 10:18:00,71.8,63.1,29.91,SSE,161,3.0,7.0,74,0.00,,BKN100,0.01,VWS V14.01,2013-08-06 14:18:00,
2013-08-06 10:23:00,71.9,62.0,29.91,ESE,110,3.0,7.0,71,0.00,,BKN100,0.01,VWS V14.01,2013-08-06 14:23:00,
2013-08-06 10:28:00,72.0,62.9,29.92,WSW,246,4.0,8.0,73,0.00,,BKN100,0.01,VWS V14.01,2013-08-06 14:28:00,
2013-08-06 10:33:00,72.3,63.2,29.91,South,189,4.0,8.0,73,0.00,,BKN100,0.01,VWS V14.01,2013-08-06 14:33:00,
2013-08-06 10:38:00,72.6,63.5,29.91,South,175,3.0,8.0,73,0.00,,BKN100,0.01,VWS V14.01,2013-08-06 14:38:00,
2013-08-06 10:43:00,73.0,63.8,29.91,SSE,167,4.0,8.0,73,0.00,,BKN100,0.01,VWS V14.01,2013-08-06 14:43:00,
2013-08-06 10:48:00,73.2,63.2,29.91,SE,129,4.0,8.0,71,0.00,,OVC080,0.01,VWS V14.01,2013-08-06 14:48:00,
2013-08-06 10:53:00,73.3,63.3,29.91,SSE,167,5.0,8.0,71,0.00,,OVC080,0.01,VWS V14.01,2013-08-06 14:53:00,
2013-08-06 10:59:00,73.4,63.0,29.92,SSE,161,2.0,8.0,70,0.00,,OVC080,0.01,VWS V14.01,2013-08-06 14:59:00,
2013-08-06 11:04:00,73.7,63.3,29.92,SSE,165,4.0,6.0,70,0.00,,OVC080,0.01,VWS V14.01,2013-08-06 15:04:00,
2013-08-06 11:09:00,74.0,63.2,29.92,SSE,150,3.0,6.0,69,0.00,,OVC080,0.01,VWS V14.01,2013-08-06 15:09:00,
2013-08-06 11:14:00,74.4,64.0,29.92,SE,138,2.0,6.0,70,0.00,,OVC080,0.01,VWS V14.01,2013-08-06 15:14:00,
2013-08-06 11:19:00,74.7,63.5,29.92,SSE,155,2.0,6.0,68,0.00,,OVC080,0.01,VWS V14.01,2013-08-06 15:19:00,
2013-08-06 11:24:00,74.9,65.3,29.92,SSE,167,5.0,6.0,72,0.00,,OVC080,0.01,VWS V14.01,2013-08-06 15:24:00,
2013-08-06 11:29:00,75.3,65.7,29.92,South,177,4.0,6.0,72,0.00,,OVC080,0.01,VWS V14.01,2013-08-06 15:29:00,
2013-08-06 11:34:00,75.6,64.3,29.91,SSE,168,4.0,7.0,68,0.00,,OVC080,0.01,VWS V14.01,2013-08-06 15:34:00,
2013-08-06 11:39:00,75.7,65.2,29.91,SSE,151,4.0,7.0,70,0.00,,OVC080,0.01,VWS V14.01,2013-08-06 15:39:00,
2013-08-06 11:44:00,75.9,65.4,29.90,South,174,4.0,7.0,70,0.00,,OVC080,0.01,VWS V14.01,2013-08-06 15:44:00,
2013-08-06 11:49:00,76.0,65.5,29.90,South,178,6.0,7.0,70,0.00,,BKN190,0.01,VWS V14.01,2013-08-06 15:49:00,
2013-08-06 11:55:00,76.0,65.1,29.90,South,185,3.0,9.0,69,0.00,,BKN190,0.01,VWS V14.01,2013-08-06 15:55:00,
2013-08-06 12:00:00,76.1,65.6,29.90,SSE,157,2.0,9.0,70,0.00,,BKN190,0.01,VWS V14.01,2013-08-06 16:00:00,
2013-08-06 12:05:00,76.5,66.0,29.90,SSE,161,6.0,7.0,70,0.00,,BKN190,0.01,VWS V14.01,2013-08-06 16:05:00,
2013-08-06 12:10:00,76.7,65.8,29.90,South,184,2.0,7.0,69,0.00,,BKN190,0.01,VWS V14.01,2013-08-06 16:10:00,
2013-08-06 12:15:00,76.7,65.8,29.90,SE,146,4.0,7.0,69,0.00,,BKN190,0.01,VWS V14.01,2013-08-06 16:15:00,
2013-08-06 12:20:00,76.8,65.4,29.90,ESE,115,3.0,7.0,68,0.00,,BKN190,0.01,VWS V14.01,2013-08-06 16:20:00,
2013-08-06 12:25:00,76.7,66.2,29.90,SSE,163,8.0,8.0,70,0.00,,BKN190,0.01,VWS V14.01,2013-08-06 16:25:00,
2013-08-06 12:30:00,76.7,65.3,29.90,SSE,154,7.0,8.0,68,0.00,,BKN190,0.01,VWS V14.01,2013-08-06 16:30:00,
2013-08-06 12:35:00,76.7,65.8,29.90,SSE,156,2.0,5.0,69,0.00,,BKN190,0.01,VWS V14.01,2013-08-06 16:35:00,
2013-08-06 12:40:00,76.7,65.3,29.90,SSE,155,2.0,8.0,68,0.00,,BKN190,0.01,VWS V14.01,2013-08-06 16:40:00,
2013-08-06 12:45:00,76.7,67.0,29.90,SSE,168,2.0,8.0,72,0.00,,OVC070,0.01,VWS V14.01,2013-08-06 16:45:00,
2013-08-06 12:51:00,76.6,65.7,29.90,South,181,1.0,8.0,69,0.00,,OVC070,0.01,VWS V14.01,2013-08-06 16:51:00,
2013-08-06 12:56:00,76.5,66.0,29.90,South,176,3.0,8.0,70,0.00,,OVC070,0.01,VWS V14.01,2013-08-06 16:56:00,
2013-08-06 13:01:00,76.3,65.4,29.90,SSE,158,3.0,5.0,69,0.00,,OVC070,0.01,VWS V14.01,2013-08-06 17:01:00,
2013-08-06 13:06:00,76.4,66.7,29.90,South,182,1.0,7.0,72,0.00,,OVC070,0.01,VWS V14.01,2013-08-06 17:06:00,
2013-08-06 13:11:00,76.6,67.7,29.90,SSW,199,1.0,7.0,74,0.00,,OVC070,0.01,VWS V14.01,2013-08-06 17:11:00,
2013-08-06 13:16:00,76.7,66.2,29.90,South,180,7.0,7.0,70,0.00,,OVC070,0.01,VWS V14.01,2013-08-06 17:16:00,
2013-08-06 13:21:00,76.5,66.0,29.90,SE,142,2.0,7.0,70,0.00,,OVC070,0.01,VWS V14.01,2013-08-06 17:21:00,
2013-08-06 13:26:00,76.4,66.3,29.90,SSE,164,3.0,7.0,71,0.00,,OVC070,0.01,VWS V14.01,2013-08-06 17:26:00,
2013-08-06 13:27:00,76.4,65.9,29.90,SE,130,4.0,7.0,70,0.00,,OVC070,0.01,VWS V14.01,2013-08-06 17:27:00,
2013-08-06 13:32:00,76.3,66.2,29.90,SSE,159,2.0,4.0,71,0.00,,OVC070,0.01,VWS V14.01,2013-08-06 17:32:00,
2013-08-06 13:37:00,76.4,65.9,29.90,South,169,3.0,6.0,70,0.00,,OVC070,0.01,VWS V14.01,2013-08-06 17:37:00,
2013-08-06 13:42:00,76.6,66.1,29.90,SSE,165,0.0,6.0,70,0.00,,OVC070,0.01,VWS V14.01,2013-08-06 17:42:00,
2013-08-06 13:47:00,76.8,66.3,29.90,ESE,113,2.0,6.0,70,0.00,,OVC060,0.01,VWS V14.01,2013-08-06 17:47:00,
2013-08-06 13:53:00,76.8,66.7,29.90,SSE,163,3.0,6.0,71,0.00,,OVC060,0.01,VWS V14.01,2013-08-06 17:53:00,
2013-08-06 13:58:00,76.9,66.8,29.90,SSE,150,4.0,7.0,71,0.00,,OVC060,0.01,VWS V14.01,2013-08-06 17:58:00,
2013-08-06 14:03:00,76.8,66.7,29.90,ESE,107,2.0,5.0,71,0.00,,OVC060,0.01,VWS V14.01,2013-08-06 18:03:00,
2013-08-06 14:08:00,76.7,66.6,29.90,South,180,2.0,6.0,71,0.00,,OVC060,0.01,VWS V14.01,2013-08-06 18:08:00,
2013-08-06 14:13:00,76.7,66.6,29.90,East,89,5.0,6.0,71,0.00,,OVC060,0.01,VWS V14.01,2013-08-06 18:13:00,
2013-08-06 14:18:00,76.9,67.2,29.89,South,174,2.0,6.0,72,0.00,,OVC060,0.01,VWS V14.01,2013-08-06 18:18:00,
2013-08-06 14:23:00,77.7,68.0,29.89,South,177,2.0,6.0,72,0.00,,OVC060,0.01,VWS V14.01,2013-08-06 18:23:00,
2013-08-06 14:28:00,78.4,67.0,29.89,South,175,1.0,7.0,68,0.00,,OVC060,0.01,VWS V14.01,2013-08-06 18:28:00,
2013-08-06 14:33:00,78.2,67.2,29.89,ESE,106,5.0,9.0,69,0.00,,OVC060,0.01,VWS V14.01,2013-08-06 18:33:00,
2013-08-06 14:39:00,78.5,69.1,29.89,SSE,162,2.0,9.0,73,0.00,,OVC060,0.01,VWS V14.01,2013-08-06 18:39:00,
2013-08-06 14:44:00,79.0,68.0,29.89,East,84,3.0,9.0,69,0.00,,OVC060,0.01,VWS V14.01,2013-08-06 18:44:00,
2013-08-06 14:49:00,79.5,68.4,29.89,SSE,156,3.0,9.0,69,0.00,,-RA,0.01,VWS V14.01,2013-08-06 18:49:00,
2013-08-06 14:54:00,80.1,69.0,29.89,South,173,5.0,9.0,69,0.00,,-RA,0.01,VWS V14.01,2013-08-06 18:54:00,
2013-08-06 14:59:00,79.9,67.5,29.89,SE,146,3.0,9.0,66,0.00,,-RA,0.01,VWS V14.01,2013-08-06 18:59:00,
2013-08-06 15:04:00,79.4,67.9,29.89,South,175,2.0,5.0,68,0.00,,-RA,0.01,VWS V14.01,2013-08-06 19:04:00,
2013-08-06 15:09:00,78.7,67.7,29.88,SSE,155,3.0,8.0,69,0.00,,-RA,0.01,VWS V14.01,2013-08-06 19:09:00,
2013-08-06 15:14:00,78.2,67.6,29.88,SSE,155,5.0,8.0,70,0.00,,-RA,0.01,VWS V14.01,2013-08-06 19:14:00,
2013-08-06 15:19:00,78.3,68.1,29.88,South,172,3.0,8.0,71,0.00,,-RA,0.01,VWS V14.01,2013-08-06 19:19:00,
2013-08-06 15:24:00,78.5,68.3,29.88,ESE,115,2.0,8.0,71,0.00,,-RA,0.01,VWS V14.01,2013-08-06 19:24:00,
2013-08-06 15:29:00,78.6,68.0,29.88,East,98,3.0,8.0,70,0.00,,-RA,0.01,VWS V14.01,2013-08-06 19:29:00,
2013-08-06 15:35:00,78.9,69.9,29.89,SW,233,0.0,6.0,74,0.00,,-RA,0.01,VWS V14.01,2013-08-06 19:35:00,
2013-08-06 15:40:00,79.6,70.2,29.89,South,176,1.0,6.0,73,0.00,,-RA,0.01,VWS V14.01,2013-08-06 19:40:00,
2013-08-06 15:45:00,79.4,68.8,29.89,South,169,1.0,6.0,70,0.00,,-RA,0.01,VWS V14.01,2013-08-06 19:45:00,
2013-08-06 15:50:00,79.1,68.9,29.89,SW,233,3.0,6.0,71,0.00,,OVC050,0.01,VWS V14.01,2013-08-06 19:50:00,
2013-08-06 15:55:00,78.6,68.4,29.89,SW,223,3.0,6.0,71,0.00,,OVC050,0.01,VWS V14.01,2013-08-06 19:55:00,
2013-08-06 16:00:00,78.6,68.8,29.89,SSW,195,1.0,6.0,72,0.00,,OVC050,0.01,VWS V14.01,2013-08-06 20:00:00,
2013-08-06 16:05:00,78.4,68.6,29.89,SSW,211,1.0,4.0,72,0.00,,OVC048,0.01,VWS V14.01,2013-08-06 20:05:00,
2013-08-06 16:10:00,78.0,68.2,29.88,SSW,207,1.0,6.0,72,0.00,,OVC048,0.01,VWS V14.01,2013-08-06 20:10:00,
2013-08-06 16:15:00,77.8,68.5,29.88,SSE,152,2.0,6.0,73,0.00,,OVC048,0.01,VWS V14.01,2013-08-06 20:15:00,
2013-08-06 16:20:00,77.6,68.3,29.88,South,180,3.0,6.0,73,0.00,,OVC048,0.01,VWS V14.01,2013-08-06 20:20:00,
2013-08-06 16:26:00,77.8,68.5,29.88,South,176,1.0,7.0,73,0.00,,OVC048,0.01,VWS V14.01,2013-08-06 20:26:00,
2013-08-06 16:31:00,78.2,68.0,29.88,SSW,200,2.0,2.0,71,0.00,,OVC048,0.01,VWS V14.01,2013-08-06 20:31:00,
2013-08-06 16:33:00,78.5,68.3,29.88,SSE,165,1.0,4.0,71,0.00,,OVC048,0.01,VWS V14.01,2013-08-06 20:33:00,
2013-08-06 16:38:00,79.0,68.8,29.87,SSE,155,4.0,6.0,71,0.00,,OVC048,0.01,VWS V14.01,2013-08-06 20:38:00,
2013-08-06 16:43:00,79.0,68.4,29.87,SSE,157,3.0,6.0,70,0.00,,OVC048,0.01,VWS V14.01,2013-08-06 20:43:00,
2013-08-06 16:48:00,79.1,68.1,29.87,South,178,1.0,7.0,69,0.00,,,0.01,VWS V14.01,2013-08-06 20:48:00,
2013-08-06 16:54:00,79.1,68.5,29.87,SE,146,5.0,7.0,70,0.00,,,0.01,VWS V14.01,2013-08-06 20:54:00,
2013-08-06 16:59:00,79.0,68.4,29.88,SSE,153,5.0,7.0,70,0.00,,,0.01,VWS V14.01,2013-08-06 20:59:00,
2013-08-06 17:04:00,78.7,68.1,29.88,SW,218,4.0,5.0,70,0.00,,,0.01,VWS V14.01,2013-08-06 21:04:00,
2013-08-06 17:09:00,78.4,67.8,29.88,South,170,4.0,5.0,70,0.00,,,0.01,VWS V14.01,2013-08-06 21:09:00,
2013-08-06 17:14:00,78.0,68.2,29.88,SSE,164,0.0,5.0,72,0.00,,,0.01,VWS V14.01,2013-08-06 21:14:00,
2013-08-06 17:19:00,77.9,68.6,29.88,SSE,166,2.0,5.0,73,0.00,,,0.01,VWS V14.01,2013-08-06 21:19:00,
2013-08-06 17:24:00,77.8,68.1,29.88,SSE,159,4.0,6.0,72,0.00,,,0.01,VWS V14.01,2013-08-06 21:24:00,
2013-08-06 17:29:00,77.8,68.9,29.88,SE,142,2.0,6.0,74,0.00,,,0.01,VWS V14.01,2013-08-06 21:29:00,
2013-08-06 17:34:00,78.0,68.7,29.87,SSE,165,3.0,6.0,73,0.00,,,0.01,VWS V14.01,2013-08-06 21:34:00,
2013-08-06 17:39:00,78.2,68.4,29.88,South,178,4.0,6.0,72,0.00,,,0.01,VWS V14.01,2013-08-06 21:39:00,
2013-08-06 17:45:00,78.2,68.8,29.88,SSE,148,1.0,6.0,73,0.00,,,0.01,VWS V14.01,2013-08-06 21:45:00,
2013-08-06 17:50:00,78.2,69.2,29.88,SSE,167,1.0,6.0,74,0.00,,OVC055,0.01,VWS V14.01,2013-08-06 21:50:00,
2013-08-06 17:55:00,78.1,69.1,29.87,South,171,1.0,6.0,74,0.00,,OVC055,0.01,VWS V14.01,2013-08-06 21:55:00,
2013-08-06 18:00:00,78.1,69.5,29.87,SSE,163,2.0,6.0,75,0.00,,OVC055,0.01,VWS V14.01,2013-08-06 22:00:00,
2013-08-06 18:05:00,78.1,69.5,29.87,SSE,150,3.0,4.0,75,0.00,,OVC055,0.01,VWS V14.01,2013-08-06 22:05:00,
2013-08-06 18:10:00,78.2,69.2,29.87,SSE,157,1.0,4.0,74,0.00,,OVC055,0.01,VWS V14.01,2013-08-06 22:10:00,
2013-08-06 18:15:00,78.4,69.8,29.87,SE,135,4.0,5.0,75,0.00,,OVC055,0.01,VWS V14.01,2013-08-06 22:15:00,
2013-08-06 18:20:00,78.4,69.8,29.87,SE,128,2.0,5.0,75,0.00,,OVC055,0.01,VWS V14.01,2013-08-06 22:20:00,
2013-08-06 18:25:00,78.5,69.9,29.86,SSE,158,3.0,5.0,75,0.00,,OVC055,0.01,VWS V14.01,2013-08-06 22:25:00,
2013-08-06 18:30:00,78.4,69.8,29.87,South,177,1.0,5.0,75,0.00,,OVC055,0.01,VWS V14.01,2013-08-06 22:30:00,
2013-08-06 18:35:00,78.2,69.2,29.86,SSW,200,2.0,6.0,74,0.00,,OVC055,0.01,VWS V14.01,2013-08-06 22:35:00,
2013-08-06 18:40:00,78.1,69.9,29.87,South,182,1.0,6.0,76,0.00,,OVC055,0.01,VWS V14.01,2013-08-06 22:40:00,
2013-08-06 18:46:00,78.0,69.4,29.87,SSE,160,3.0,6.0,75,0.00,,OVC041,0.01,VWS V14.01,2013-08-06 22:46:00,
2013-08-06 18:51:00,77.9,69.3,29.87,SSE,150,2.0,6.0,75,0.00,,OVC041,0.01,VWS V14.01,2013-08-06 22:51:00,
2013-08-06 18:56:00,77.8,69.2,29.86,South,178,2.0,6.0,75,0.00,,OVC041,0.01,VWS V14.01,2013-08-06 22:56:00,
2013-08-06 19:01:00,77.7,69.2,29.86,SSE,163,3.0,3.0,75,0.00,,OVC036,0.01,VWS V14.01,2013-08-06 23:01:00,
2013-08-06 19:06:00,77.6,69.1,29.86,South,173,3.0,5.0,75,0.00,,OVC036,0.01,VWS V14.01,2013-08-06 23:06:00,
2013-08-06 19:11:00,77.6,69.1,29.86,SSE,153,1.0,5.0,75,0.00,,OVC036,0.01,VWS V14.01,2013-08-06 23:11:00,
2013-08-06 19:16:00,77.5,69.3,29.86,SSE,162,2.0,5.0,76,0.00,,OVC036,0.01,VWS V14.01,2013-08-06 23:16:00,
2013-08-06 19:21:00,77.5,69.3,29.86,SSE,164,3.0,5.0,76,0.00,,OVC036,0.01,VWS V14.01,2013-08-06 23:21:00,
2013-08-06 19:26:00,77.3,69.5,29.86,South,177,0.0,5.0,77,0.00,,OVC036,0.01,VWS V14.01,2013-08-06 23:26:00,
2013-08-06 19:31:00,77.2,69.4,29.86,South,181,0.0,1.0,77,0.00,,OVC036,0.01,VWS V14.01,2013-08-06 23:31:00,
2013-08-06 19:36:00,76.8,69.4,29.87,South,182,0.0,1.0,78,0.00,,OVC036,0.01,VWS V14.01,2013-08-06 23:36:00,
2013-08-06 19:42:00,76.5,69.1,29.87,South,182,0.0,1.0,78,0.00,,OVC036,0.01,VWS V14.01,2013-08-06 23:42:00,
2013-08-06 19:47:00,76.4,69.4,29.87,South,182,0.0,1.0,79,0.00,,OVC055,0.01,VWS V14.01,2013-08-06 23:47:00,
2013-08-06 19:52:00,76.3,69.7,29.87,South,182,0.0,1.0,80,0.00,,OVC055,0.01,VWS V14.01,2013-08-06 23:52:00,
2013-08-06 19:57:00,76.2,69.6,29.87,South,183,0.0,2.0,80,0.00,,OVC055,0.01,VWS V14.01,2013-08-06 23:57:00,
2013-08-06 20:02:00,75.9,69.7,29.87,South,183,0.0,0.0,81,0.00,,OVC055,0.01,VWS V14.01,2013-08-07 00:02:00,
2013-08-06 20:07:00,75.6,69.7,29.87,South,183,0.0,0.0,82,0.00,,OVC055,0.01,VWS V14.01,2013-08-07 00:07:00,
2013-08-06 20:12:00,75.3,69.1,29.87,South,183,0.0,0.0,81,0.00,,OVC055,0.01,VWS V14.01,2013-08-07 00:12:00,
2013-08-06 20:17:00,75.1,69.2,29.87,South,183,0.0,0.0,82,0.00,,OVC055,0.01,VWS V14.01,2013-08-07 00:17:00,
2013-08-06 20:22:00,74.8,68.9,29.86,South,183,0.0,0.0,82,0.00,,OVC055,0.01,VWS V14.01,2013-08-07 00:22:00,
2013-08-06 20:27:00,74.4,68.9,29.86,South,183,0.0,0.0,83,0.00,,OVC055,0.01,VWS V14.01,2013-08-07 00:27:00,
2013-08-06 20:33:00,74.2,68.7,29.86,South,183,0.0,0.0,83,0.00,,OVC055,0.01,VWS V14.01,2013-08-07 00:33:00,
2013-08-06 20:38:00,73.9,68.8,29.86,South,183,0.0,0.0,84,0.00,,OVC055,0.01,VWS V14.01,2013-08-07 00:38:00,
2013-08-06 20:43:00,73.6,68.8,29.86,South,183,0.0,0.0,85,0.00,,OVC055,0.01,VWS V14.01,2013-08-07 00:43:00,
2013-08-06 20:48:00,73.4,69.0,29.86,South,183,0.0,0.0,86,0.00,,OVC055,0.01,VWS V14.01,2013-08-07 00:48:00,
2013-08-06 20:53:00,73.2,68.8,29.86,South,183,0.0,0.0,86,0.00,,OVC055,0.01,VWS V14.01,2013-08-07 00:53:00,
2013-08-06 20:58:00,73.0,68.9,29.86,South,183,0.0,0.0,87,0.00,,OVC055,0.01,VWS V14.01,2013-08-07 00:58:00,
2013-08-06 21:03:00,72.8,68.7,29.86,South,183,0.0,0.0,87,0.00,,OVC055,0.01,VWS V14.01,2013-08-07 01:03:00,
2013-08-06 21:08:00,72.5,68.8,29.86,South,183,0.0,0.0,88,0.00,,OVC055,0.01,VWS V14.01,2013-08-07 01:08:00,
2013-08-06 21:13:00,72.1,68.3,29.86,South,183,0.0,0.0,88,0.00,,OVC055,0.01,VWS V14.01,2013-08-07 01:13:00,
2013-08-06 21:18:00,71.7,68.3,29.86,South,183,0.0,0.0,89,0.00,,OVC055,0.01,VWS V14.01,2013-08-07 01:18:00,
2013-08-06 21:23:00,71.4,68.3,29.86,South,183,0.0,0.0,90,0.00,,OVC055,0.01,VWS V14.01,2013-08-07 01:23:00,
2013-08-06 21:29:00,71.1,68.0,29.87,South,183,0.0,0.0,90,0.00,,OVC055,0.01,VWS V14.01,2013-08-07 01:29:00,
2013-08-06 21:34:00,70.7,67.6,29.87,South,183,0.0,0.0,90,0.00,,OVC055,0.01,VWS V14.01,2013-08-07 01:34:00,
2013-08-06 21:39:00,70.4,67.3,29.87,South,183,0.0,0.0,90,0.00,,OVC055,0.01,VWS V14.01,2013-08-07 01:39:00,
2013-08-06 21:44:00,70.1,67.4,29.87,South,183,0.0,0.0,91,0.00,,OVC055,0.01,VWS V14.01,2013-08-07 01:44:00,
2013-08-06 21:49:00,69.7,67.0,29.87,South,183,0.0,0.0,91,0.00,,BKN100,0.01,VWS V14.01,2013-08-07 01:49:00,
2013-08-06 21:54:00,69.5,67.1,29.87,South,183,0.0,0.0,92,0.00,,BKN100,0.01,VWS V14.01,2013-08-07 01:54:00,
2013-08-06 21:59:00,69.3,67.2,29.87,South,183,0.0,0.0,93,0.00,,BKN100,0.01,VWS V14.01,2013-08-07 01:59:00,
2013-08-06 22:04:00,69.2,67.1,29.87,South,183,0.0,0.0,93,0.00,,BKN100,0.01,VWS V14.01,2013-08-07 02:04:00,
2013-08-06 22:09:00,69.1,67.3,29.87,South,183,0.0,0.0,94,0.00,,BKN100,0.01,VWS V14.01,2013-08-07 02:09:00,
2013-08-06 22:14:00,69.1,67.3,29.87,South,183,0.0,0.0,94,0.00,,BKN100,0.01,VWS V14.01,2013-08-07 02:14:00,
2013-08-06 22:20:00,69.2,67.7,29.88,South,183,0.0,0.0,95,0.00,,BKN100,0.01,VWS V14.01,2013-08-07 02:20:00,
2013-08-06 22:25:00,69.2,67.7,29.87,South,183,0.0,0.0,95,0.00,,BKN100,0.01,VWS V14.01,2013-08-07 02:25:00,
2013-08-06 22:30:00,69.3,67.5,29.87,South,183,0.0,0.0,94,0.00,,BKN100,0.01,VWS V14.01,2013-08-07 02:30:00,
2013-08-06 22:35:00,69.2,67.4,29.87,South,183,0.0,0.0,94,0.00,,BKN100,0.01,VWS V14.01,2013-08-07 02:35:00,
2013-08-06 22:40:00,69.2,67.4,29.87,South,183,0.0,0.0,94,0.00,,BKN100,0.01,VWS V14.01,2013-08-07 02:40:00,
2013-08-06 22:45:00,69.2,67.4,29.87,South,183,0.0,0.0,94,0.00,,CLR,0.01,VWS V14.01,2013-08-07 02:45:00,
2013-08-06 22:50:00,69.3,67.5,29.87,South,183,0.0,0.0,94,0.00,,CLR,0.01,VWS V14.01,2013-08-07 02:50:00,
2013-08-06 22:55:00,69.3,67.5,29.87,South,183,0.0,0.0,94,0.00,,CLR,0.01,VWS V14.01,2013-08-07 02:55:00,
2013-08-06 23:00:00,69.2,67.1,29.87,South,183,0.0,0.0,93,0.00,,CLR,0.01,VWS V14.01,2013-08-07 03:00:00,
2013-08-06 23:06:00,68.9,66.8,29.87,South,183,0.0,0.0,93,0.00,,CLR,0.01,VWS V14.01,2013-08-07 03:06:00,
2013-08-06 23:11:00,68.8,67.0,29.86,South,183,0.0,0.0,94,0.00,,CLR,0.01,VWS V14.01,2013-08-07 03:11:00,
2013-08-06 23:16:00,68.8,67.0,29.87,South,183,0.0,0.0,94,0.00,,CLR,0.01,VWS V14.01,2013-08-07 03:16:00,
2013-08-06 23:21:00,68.7,66.9,29.87,South,183,0.0,0.0,94,0.00,,CLR,0.01,VWS V14.01,2013-08-07 03:21:00,
2013-08-06 23:26:00,68.6,66.8,29.87,South,183,0.0,0.0,94,0.00,,CLR,0.01,VWS V14.01,2013-08-07 03:26:00,
2013-08-06 23:31:00,68.5,66.7,29.87,South,183,0.0,0.0,94,0.00,,CLR,0.01,VWS V14.01,2013-08-07 03:31:00,
2013-08-06 23:36:00,68.3,66.5,29.87,South,183,0.0,0.0,94,0.00,,CLR,0.01,VWS V14.01,2013-08-07 03:36:00,
2013-08-06 23:41:00,68.2,66.4,29.87,South,183,0.0,0.0,94,0.00,,CLR,0.01,VWS V14.01,2013-08-07 03:41:00,
2013-08-06 23:46:00,68.1,66.6,29.87,South,183,0.0,0.0,95,0.00,,CLR,0.01,VWS V14.01,2013-08-07 03:46:00,
2013-08-06 23:51:00,68.0,66.5,29.87,South,183,0.0,0.0,95,0.00,,CLR,0.01,VWS V14.01,2013-08-07 03:51:00,
2013-08-06 23:56:00,67.9,66.4,29.87,South,183,0.0,0.0,95,0.00,,CLR,0.01,VWS V14.01,2013-08-07 03:56:00,